2023/08/22 00:00:00, 9.2,24.8
2023/08/22 00:10:00, 8.6,24.6
2023/08/22 00:20:00, 8.2,24.5
2023/08/22 00:30:00, 7.5,24.6
2023/08/22 00:40:00, 7.1,24.6
2023/08/22 00:50:00, 6.7,24.5
2023/08/22 01:00:00, 6.2,24.4
2023/08/22 01:10:00, 2.8,24.4
2023/08/22 01:20:00, 0.3,24.3
2023/08/22 01:30:00, 0.3,24.2
2023/08/22 01:40:00, 0.3,24.2
2023/08/22 01:50:00, 0.3,24.1
2023/08/22 02:00:00, 0.2,24.0
2023/08/22 02:10:00, 0.2,24.0
2023/08/22 02:20:00, 0.2,23.9
2023/08/22 02:30:00, 0.4,23.9
2023/08/22 02:40:00, 7.5,23.8
2023/08/22 02:50:00,10.4,24.2
2023/08/22 03:00:00,10.7,23.9
2023/08/22 03:10:00,10.4,23.7
2023/08/22 03:20:00, 6.4,23.7
2023/08/22 03:30:00, 6.0,23.8
2023/08/22 03:40:00, 9.3,23.7
2023/08/22 03:50:00,10.2,23.3
2023/08/22 04:00:00,10.3,23.2
2023/08/22 04:10:00,10.3,23.3
2023/08/22 04:20:00,10.3,23.3
2023/08/22 04:30:00,10.3,23.3
2023/08/22 04:40:00,10.6,23.0
2023/08/22 04:50:00,11.0,23.0
2023/08/22 05:00:00,11.1,23.0
2023/08/22 05:10:00,10.8,23.1
2023/08/22 05:20:00,10.1,23.0
2023/08/22 05:30:00, 9.1,23.0
2023/08/22 05:40:00, 8.3,23.2
2023/08/22 05:50:00, 7.6,23.4
2023/08/22 06:00:00, 4.0,23.4
2023/08/22 06:10:00, 0.3,23.6
2023/08/22 06:20:00, 0.3,24.1
2023/08/22 06:30:00, 5.1,24.5
2023/08/22 06:40:00, 9.9,25.5
2023/08/22 06:50:00, 9.4,25.9
2023/08/22 07:00:00, 9.2,26.6
2023/08/22 07:10:00, 9.5,26.9
2023/08/22 07:20:00, 9.8,27.6
2023/08/22 07:30:00, 6.8,27.9
2023/08/22 07:40:00, 5.9,28.3
2023/08/22 07:50:00, 6.8,28.9
2023/08/22 08:00:00, 7.9,29.7
2023/08/22 08:10:00, 7.9,32.7
2023/08/22 08:20:00, 7.6,33.7
2023/08/22 08:30:00, 7.2,33.0
2023/08/22 08:40:00, 7.0,33.1
2023/08/22 08:50:00, 6.6,33.1
2023/08/22 09:00:00, 6.7,34.0
2023/08/22 09:10:00, 7.0,34.5
2023/08/22 09:20:00, 7.2,34.2
2023/08/22 09:30:00, 7.5,34.3
2023/08/22 09:40:00, 7.6,33.6
2023/08/22 09:50:00, 7.8,33.7
2023/08/22 10:00:00, 7.7,33.8
2023/08/22 10:10:00, 8.2,34.5
2023/08/22 10:20:00, 8.4,34.5
2023/08/22 10:30:00, 8.3,34.9
2023/08/22 10:40:00, 8.7,34.8
2023/08/22 10:50:00, 8.1,33.8
2023/08/22 11:00:00, 7.7,33.6
2023/08/22 11:10:00, 7.5,34.8
2023/08/22 11:20:00, 7.3,35.2
2023/08/22 11:30:00, 7.2,35.0
2023/08/22 11:40:00, 7.3,35.5
2023/08/22 11:50:00, 7.3,35.4
2023/08/22 12:00:00, 7.3,34.4
2023/08/22 12:10:00, 7.8,33.9
2023/08/22 12:20:00, 7.0,34.5
2023/08/22 12:30:00, 6.2,34.3
2023/08/22 12:40:00, 6.1,34.8
2023/08/22 12:50:00, 6.3,35.3
2023/08/22 13:00:00, 6.3,35.6
2023/08/22 13:10:00, 6.3,34.5
2023/08/22 13:20:00, 6.2,34.5
2023/08/22 13:30:00, 6.3,33.8
2023/08/22 13:40:00, 6.3,33.6
2023/08/22 13:50:00, 5.8,34.8
2023/08/22 14:00:00, 5.8,35.0
2023/08/22 14:10:00, 5.9,35.1
2023/08/22 14:20:00, 6.0,35.3
2023/08/22 14:30:00, 5.9,35.4
2023/08/22 14:40:00, 5.7,35.6
2023/08/22 14:50:00, 5.7,35.5
2023/08/22 15:00:00, 5.6,35.8
2023/08/22 15:10:00, 5.6,35.5
2023/08/22 15:20:00, 5.6,35.1
2023/08/22 15:30:00, 5.7,34.1
2023/08/22 15:40:00, 5.8,35.1
2023/08/22 15:50:00, 5.7,34.6
2023/08/22 16:00:00, 5.8,34.4
2023/08/22 16:10:00, 5.8,33.5
2023/08/22 16:20:00, 5.8,33.4
2023/08/22 16:30:00, 5.8,36.8
2023/08/22 16:40:00, 6.1,35.1
2023/08/22 16:50:00, 6.3,36.0
2023/08/22 17:00:00, 6.7,33.6
2023/08/22 17:10:00, 7.3,32.5
2023/08/22 17:20:00, 7.8,32.3
2023/08/22 17:30:00, 8.4,33.4
2023/08/22 17:40:00, 8.9,31.2
2023/08/22 17:50:00, 8.8,29.4
2023/08/22 18:00:00, 8.4,28.6
2023/08/22 18:10:00, 8.9,28.5
2023/08/22 18:20:00, 8.9,28.2
2023/08/22 18:30:00, 8.4,28.0
2023/08/22 18:40:00, 8.1,28.1
2023/08/22 18:50:00, 7.3,27.8
2023/08/22 19:00:00, 6.5,27.8
2023/08/22 19:10:00, 5.7,27.9
2023/08/22 19:20:00, 5.3,27.9
2023/08/22 19:30:00, 5.3,27.5
2023/08/22 19:40:00, 5.7,27.2
2023/08/22 19:50:00, 5.3,27.6
2023/08/22 20:00:00, 4.2,26.9
2023/08/22 20:10:00, 1.4,26.6
2023/08/22 20:20:00, 0.3,26.2
2023/08/22 20:30:00, 0.3,26.1
2023/08/22 20:40:00, 0.3,25.8
2023/08/22 20:50:00, 0.3,25.9
2023/08/22 21:00:00, 0.3,25.8
2023/08/22 21:10:00, 1.6,25.6
2023/08/22 21:20:00, 5.4,25.6
2023/08/22 21:30:00, 6.5,25.4
2023/08/22 21:40:00, 6.6,25.2
2023/08/22 21:50:00, 6.0,25.1
2023/08/22 22:00:00, 6.2,25.1
2023/08/22 22:10:00, 7.8,25.3
2023/08/22 22:20:00, 7.3,25.0
2023/08/22 22:30:00, 6.2,25.8
2023/08/22 22:40:00, 5.8,24.7
2023/08/22 22:50:00, 0.7,24.5
2023/08/22 23:00:00, 0.2,24.5
2023/08/22 23:10:00, 0.2,24.4
2023/08/22 23:20:00, 0.2,24.8
2023/08/22 23:30:00, 0.2,24.7
2023/08/22 23:40:00, 0.2,24.4
2023/08/22 23:50:00, 0.2,24.6
